Weather History for KHYA - September, 2013

Change the Weather History Date:

Wednesday, September 11, 2013

  Actual Average Record
Temperature  
Mean Temperature 75 °F -  
Max Temperature 82 °F 74 °F 91 °F (1931)
Min Temperature 69 °F 58 °F 40 °F (1963)
Cooling Degree Days 10    
Growing Degree Days 25 (Base 50)    
Moisture  
Dew Point 69 °F    
Average Humidity 87    
Maximum Humidity 100    
Minimum Humidity 72    
Precipitation  
Precipitation 0.00 in - - ()
Sea Level Pressure  
Sea Level Pressure 30.06 in    
Wind  
Wind Speed 11 mph (SW)    
Max Wind Speed 21 mph    
Max Gust Speed 26 mph    
Visibility 7 miles    
Events      
Averages and records for this station are not official NWS values.
T = Trace of Precipitation, MM = Missing Value Source: NWS Daily Summary

Daily Weather History Graph

Daily Weather History Graph

Search for Another Location

Airport or City:

Trip Planner

Search our weather history database for the weather conditions in past years. The results will help you decide how hot, cold, wet, or windy it might be!

Date:

Astronomy

Sep. 11, 2013 Rise Set
Actual Time 6:17 AM EDT 6:57 PM EDT
Civil Twilight 5:49 AM EDT 7:25 PM EDT
Nautical Twilight 5:16 AM EDT 7:58 PM EDT
Astronomical Twilight 4:41 AM EDT 8:32 PM EDT
Moon 12:47 PM EDT (9/11) 10:44 PM EDT (9/11)
Length of Visible Light 13h 35m
Length of Day
12h 39m
Waxing Crescent, 38% of the Moon is Illuminated
Sep 11
Waxing Crescent
Sep 12
First Quarter
Sep 19
Full
Sep 26
Last Quarter
Oct 4
New

Hourly Weather History & Observations

Time (EDT) Temp. Heat Index Dew Point Humidity Pressure Visibility Wind Dir Wind Speed Gust Speed Precip Events Conditions
12:56 AM 71.1 °F - 68.0 °F 90% 30.11 in 10.0 mi SW 11.5 mph - N/A   Overcast
1:56 AM 71.1 °F - 68.0 °F 90% 30.09 in 9.0 mi SW 13.8 mph - N/A   Overcast
2:56 AM 71.1 °F - 69.1 °F 93% 30.08 in 9.0 mi SW 16.1 mph 23.0 mph N/A   Overcast
3:46 AM 69.8 °F - 69.8 °F 100% 30.06 in 8.0 mi SW 11.5 mph - N/A   Mostly Cloudy
3:54 AM 69.8 °F - 68.0 °F 94% 30.06 in 8.0 mi SW 10.4 mph - N/A   Scattered Clouds
3:56 AM 70.0 °F - 68.0 °F 93% 30.06 in 8.0 mi SW 9.2 mph - N/A   Partly Cloudy
4:35 AM 69.8 °F - 68.0 °F 94% 30.06 in 8.0 mi SSW 9.2 mph - N/A   Mostly Cloudy
4:51 AM 69.8 °F - 68.0 °F 94% 30.06 in 7.0 mi SSW 9.2 mph - N/A   Overcast
4:56 AM 70.0 °F - 68.0 °F 93% 30.07 in 7.0 mi SSW 9.2 mph - N/A   Overcast
5:56 AM 70.0 °F - 68.0 °F 93% 30.08 in 5.0 mi SSW 8.1 mph - N/A   Overcast
6:33 AM 69.8 °F - 68.0 °F 94% 30.08 in 6.0 mi SW 8.1 mph - N/A   Scattered Clouds
6:56 AM 71.1 °F - 69.1 °F 93% 30.09 in 6.0 mi SW 9.2 mph - N/A   Clear
7:00 AM 71.6 °F - 69.8 °F 94% 30.08 in 6.0 mi SW 8.1 mph - N/A   Partly Cloudy
7:28 AM 71.6 °F - 69.8 °F 94% 30.09 in 5.0 mi SSW 6.9 mph - N/A   Mostly Cloudy
7:56 AM 71.1 °F - 69.1 °F 93% 30.09 in 6.0 mi SW 11.5 mph - N/A   Overcast
8:25 AM 73.4 °F - 69.8 °F 88% 30.09 in 7.0 mi SSW 11.5 mph - N/A   Scattered Clouds
8:56 AM 75.0 °F - 70.0 °F 84% 30.09 in 8.0 mi SW 10.4 mph - N/A   Clear
9:56 AM 77.0 °F - 70.0 °F 79% 30.09 in 9.0 mi SW 13.8 mph - N/A   Clear
10:56 AM 79.0 °F - 71.1 °F 77% 30.07 in 10.0 mi SSW 10.4 mph - N/A   Clear
11:56 AM 80.1 °F 83.6 °F 71.1 °F 74% 30.07 in 10.0 mi SSW 9.2 mph 16.1 mph N/A   Clear
12:56 PM 81.0 °F 84.9 °F 71.1 °F 72% 30.05 in 8.0 mi SW 15.0 mph 21.9 mph N/A   Clear
1:56 PM 80.1 °F 83.6 °F 71.1 °F 74% 30.04 in 8.0 mi SSW 12.7 mph - N/A   Clear
2:56 PM 80.1 °F 83.6 °F 71.1 °F 74% 30.03 in 8.0 mi SSW 12.7 mph - N/A   Clear
3:56 PM 80.1 °F 83.6 °F 71.1 °F 74% 30.02 in 8.0 mi SSW 11.5 mph 17.3 mph N/A   Clear
4:56 PM 77.0 °F - 71.1 °F 82% 30.01 in 7.0 mi SW 13.8 mph 21.9 mph N/A   Clear
5:56 PM 77.0 °F - 71.1 °F 82% 30.00 in 7.0 mi SW 13.8 mph 20.7 mph N/A   Clear
6:56 PM 73.0 °F - 70.0 °F 90% 30.00 in 6.0 mi SSW 11.5 mph - N/A   Clear
7:56 PM 73.0 °F - 69.1 °F 87% 30.03 in 6.0 mi SW 12.7 mph - N/A   Clear
8:56 PM 72.0 °F - 69.1 °F 91% 30.04 in 6.0 mi SW 10.4 mph - N/A   Clear
9:56 PM 72.0 °F - 69.1 °F 91% 30.03 in 6.0 mi SSW 10.4 mph - N/A   Clear
10:56 PM 73.0 °F - 69.1 °F 87% 30.03 in 8.0 mi SW 20.7 mph 26.5 mph N/A   Clear
11:56 PM 72.0 °F - 69.1 °F 91% 30.01 in 7.0 mi SW 16.1 mph 21.9 mph N/A   Clear